Check out our new BloomSky Weather System.

Active alerts


No alerts


Thunder radar  blitzortung!


Rain radar more information rain snow radar


Visit our other weather sites:

Template documentation
and downloads

And another site



Weather Underground History page Text

Daily Summary for July 7, 2017 Units:  English    Metric   Both
« Previous Day
Next Day »
Daily Weekly Monthly Yearly Custom
  High: Low: Average:
Temperature: 98.4 °F 76.3 °F 86.1 °F
Dew Point: 79.9 °F 72.3 °F 75.8 °F
Humidity: 94 % 44 % 73 %
Wind Speed: 10.0 mph 0.0 mph 1.8 mph
Wind Gust: 14.0 mph - -
Wind:- - South
Pressure: 30.11 in 29.99 in -
Precipitation: 0.00 in    
Historical Graphs
 
 
Tabular Data for July 7, 2017
Time Temperature Dew Point Pressure Wind Wind Speed Wind Gust Humidity Rainfall Rate (Hourly)
00:03 82.2 °F 76.1 °F 30.06 in SSE 1.0 mph 6.0 mph 82 % 0.00 in
00:08 82.2 °F 76.1 °F 30.06 in SSE 1.0 mph 5.0 mph 82 % 0.00 in
00:13 82.0 °F 76.3 °F 30.06 in Calm   4.0 mph 83 % 0.00 in
00:18 82.0 °F 76.3 °F 30.06 in South 1.0 mph 4.0 mph 83 % 0.00 in
00:23 81.9 °F 76.1 °F 30.06 in Calm   4.0 mph 83 % 0.00 in
00:28 81.7 °F 76.3 °F 30.06 in SSE 3.0 mph 4.0 mph 84 % 0.00 in
00:33 81.7 °F 76.3 °F 30.06 in SSE 2.0 mph 7.0 mph 84 % 0.00 in
00:38 81.7 °F 76.3 °F 30.06 in SSE 2.0 mph 7.0 mph 84 % 0.00 in
00:43 81.7 °F 76.3 °F 30.06 in Calm   7.0 mph 84 % 0.00 in
00:48 81.3 °F 76.1 °F 30.06 in SE 1.0 mph 7.0 mph 84 % 0.00 in
00:54 81.3 °F 76.5 °F 30.06 in Calm   2.0 mph 85 % 0.00 in
00:59 81.1 °F 76.3 °F 30.06 in SE 2.0 mph 2.0 mph 85 % 0.00 in
01:04 81.0 °F 76.1 °F 30.06 in Calm   4.0 mph 85 % 0.00 in
01:09 81.0 °F 76.5 °F 30.06 in SSE 2.0 mph 4.0 mph 86 % 0.00 in
01:14 81.0 °F 76.5 °F 30.06 in South 1.0 mph 4.0 mph 86 % 0.00 in
01:19 80.8 °F 76.3 °F 30.06 in SSW 1.0 mph 4.0 mph 86 % 0.00 in
01:24 80.8 °F 76.3 °F 30.06 in South 2.0 mph 3.0 mph 86 % 0.00 in
01:29 80.8 °F 76.3 °F 30.06 in Calm   3.0 mph 86 % 0.00 in
01:34 80.6 °F 76.1 °F 30.06 in Calm   3.0 mph 86 % 0.00 in
01:39 80.4 °F 75.9 °F 30.06 in Calm   3.0 mph 86 % 0.00 in
01:44 80.2 °F 76.1 °F 30.06 in Calm   3.0 mph 87 % 0.00 in
01:49 80.2 °F 76.1 °F 30.06 in Calm   2.0 mph 87 % 0.00 in
01:54 80.1 °F 75.9 °F 30.05 in Calm   2.0 mph 87 % 0.00 in
01:59 80.1 °F 75.9 °F 30.05 in Calm   2.0 mph 87 % 0.00 in
02:04 79.9 °F 75.9 °F 30.06 in Calm   2.0 mph 88 % 0.00 in
02:09 79.7 °F 75.7 °F 30.06 in Calm   1.0 mph 88 % 0.00 in
02:14 79.5 °F 75.6 °F 30.06 in Calm   1.0 mph 88 % 0.00 in
02:19 79.3 °F 75.6 °F 30.06 in Calm     88 % 0.00 in
02:24 79.2 °F 75.4 °F 30.06 in Calm     88 % 0.00 in
02:29 79.2 °F 75.6 °F 30.06 in Calm     89 % 0.00 in
02:34 79.0 °F 75.4 °F 30.06 in Calm     89 % 0.00 in
02:39 79.2 °F 75.6 °F 30.06 in Calm   2.0 mph 89 % 0.00 in
02:44 79.0 °F 75.4 °F 30.06 in Calm   2.0 mph 89 % 0.00 in
02:49 79.0 °F 75.4 °F 30.05 in South 1.0 mph 2.0 mph 89 % 0.00 in
02:54 79.0 °F 75.4 °F 30.05 in SSW 2.0 mph 2.0 mph 89 % 0.00 in
02:59 79.2 °F 75.6 °F 30.05 in South 1.0 mph 2.0 mph 89 % 0.00 in
03:04 79.2 °F 75.6 °F 30.05 in Calm   2.0 mph 89 % 0.00 in
03:09 79.0 °F 75.4 °F 30.05 in SSW 1.0 mph 2.0 mph 89 % 0.00 in
03:14 79.0 °F 75.4 °F 30.05 in South 1.0 mph 2.0 mph 89 % 0.00 in
03:20 79.0 °F 75.4 °F 30.05 in SSW 1.0 mph 2.0 mph 89 % 0.00 in
03:25 79.0 °F 75.4 °F 30.05 in SSW 1.0 mph 2.0 mph 89 % 0.00 in
03:30 79.0 °F 75.4 °F 30.05 in SSW 1.0 mph 2.0 mph 89 % 0.00 in
03:35 78.8 °F 75.2 °F 30.05 in SSE 1.0 mph 2.0 mph 89 % 0.00 in
03:40 78.8 °F 75.6 °F 30.05 in Calm   2.0 mph 90 % 0.00 in
03:45 78.8 °F 75.6 °F 30.05 in SSW 1.0 mph 2.0 mph 90 % 0.00 in
03:50 78.8 °F 75.6 °F 30.05 in Calm   2.0 mph 90 % 0.00 in
03:55 78.6 °F 75.4 °F 30.05 in SSW 1.0 mph 2.0 mph 90 % 0.00 in
04:00 78.6 °F 75.4 °F 30.05 in SSW 1.0 mph 2.0 mph 90 % 0.00 in
04:05 78.6 °F 75.4 °F 30.05 in Calm   2.0 mph 90 % 0.00 in
04:10 78.4 °F 75.2 °F 30.05 in Calm   2.0 mph 90 % 0.00 in
04:15 78.3 °F 75.0 °F 30.05 in Calm   2.0 mph 90 % 0.00 in
04:20 78.1 °F 74.8 °F 30.05 in Calm     90 % 0.00 in
04:25 78.1 °F 75.2 °F 30.04 in SSW 1.0 mph 1.0 mph 91 % 0.00 in
04:30 78.1 °F 75.2 °F 30.04 in SSW 1.0 mph 2.0 mph 91 % 0.00 in
04:35 78.1 °F 75.2 °F 30.05 in Calm   2.0 mph 91 % 0.00 in
04:40 78.1 °F 75.2 °F 30.04 in Calm   2.0 mph 91 % 0.00 in
04:45 77.9 °F 75.0 °F 30.04 in Calm   2.0 mph 91 % 0.00 in
04:50 77.9 °F 75.0 °F 30.05 in Calm   2.0 mph 91 % 0.00 in
04:55 77.9 °F 75.0 °F 30.05 in Calm   1.0 mph 91 % 0.00 in
05:00 77.7 °F 74.8 °F 30.05 in Calm   1.0 mph 91 % 0.00 in
05:05 77.5 °F 75.0 °F 30.05 in Calm   1.0 mph 92 % 0.00 in
05:10 77.5 °F 75.0 °F 30.05 in Calm   1.0 mph 92 % 0.00 in
05:15 77.5 °F 75.0 °F 30.06 in Calm   1.0 mph 92 % 0.00 in
05:20 77.4 °F 74.8 °F 30.06 in Calm     92 % 0.00 in
05:25 77.4 °F 74.8 °F 30.06 in Calm     92 % 0.00 in
05:30 77.4 °F 74.8 °F 30.06 in Calm     92 % 0.00 in
05:35 77.4 °F 74.8 °F 30.06 in Calm   1.0 mph 92 % 0.00 in
05:40 77.2 °F 74.7 °F 30.06 in Calm   1.0 mph 92 % 0.00 in
05:45 77.0 °F 74.8 °F 30.06 in Calm   1.0 mph 93 % 0.00 in
05:50 76.8 °F 74.7 °F 30.06 in Calm     93 % 0.00 in
05:55 76.8 °F 74.7 °F 30.06 in Calm     93 % 0.00 in
06:00 76.6 °F 74.5 °F 30.06 in Calm     93 % 0.00 in
06:05 76.6 °F 74.5 °F 30.06 in Calm   1.0 mph 93 % 0.00 in
06:10 76.6 °F 74.5 °F 30.06 in Calm   1.0 mph 93 % 0.00 in
06:15 76.6 °F 74.5 °F 30.07 in Calm   1.0 mph 93 % 0.00 in
06:20 76.5 °F 74.7 °F 30.07 in Calm   1.0 mph 94 % 0.00 in
06:25 76.5 °F 74.7 °F 30.07 in Calm   1.0 mph 94 % 0.00 in
06:30 76.5 °F 74.7 °F 30.07 in Calm   1.0 mph 94 % 0.00 in
06:35 76.5 °F 74.7 °F 30.07 in Calm   1.0 mph 94 % 0.00 in
06:40 76.3 °F 74.5 °F 30.07 in Calm     94 % 0.00 in
06:45 76.3 °F 74.5 °F 30.07 in Calm     94 % 0.00 in
06:50 76.3 °F 74.5 °F 30.08 in Calm   1.0 mph 94 % 0.00 in
06:55 76.5 °F 74.7 °F 30.08 in Calm   1.0 mph 94 % 0.00 in
07:00 76.6 °F 74.8 °F 30.08 in Calm   1.0 mph 94 % 0.00 in
07:05 76.8 °F 75.0 °F 30.08 in Calm   1.0 mph 94 % 0.00 in
07:10 77.2 °F 75.4 °F 30.08 in Calm   1.0 mph 94 % 0.00 in
07:15 77.5 °F 75.7 °F 30.08 in Calm     94 % 0.00 in
07:20 78.1 °F 75.9 °F 30.08 in Calm   1.0 mph 93 % 0.00 in
07:26 78.4 °F 76.3 °F 30.09 in Calm   1.0 mph 93 % 0.00 in
07:31 79.2 °F 77.0 °F 30.09 in Calm   1.0 mph 93 % 0.00 in
07:36 79.5 °F 77.0 °F 30.09 in NW 1.0 mph 1.0 mph 92 % 0.00 in
07:41 80.2 °F 77.4 °F 30.09 in Calm   1.0 mph 91 % 0.00 in
07:46 81.0 °F 77.7 °F 30.09 in NW 1.0 mph 1.0 mph 90 % 0.00 in
07:51 81.1 °F 77.2 °F 30.09 in NW 2.0 mph 3.0 mph 88 % 0.00 in
07:56 81.3 °F 77.4 °F 30.09 in WNW 2.0 mph 3.0 mph 88 % 0.00 in
08:01 81.7 °F 77.4 °F 30.09 in NW 1.0 mph 3.0 mph 87 % 0.00 in
08:06 82.0 °F 77.7 °F 30.09 in Calm   3.0 mph 87 % 0.00 in
08:11 82.6 °F 77.5 °F 30.09 in Calm   3.0 mph 85 % 0.00 in
08:16 83.3 °F 78.6 °F 30.09 in West 1.0 mph 2.0 mph 86 % 0.00 in
08:21 84.0 °F 78.6 °F 30.09 in Calm   2.0 mph 84 % 0.00 in
08:26 84.9 °F 78.8 °F 30.10 in Calm   2.0 mph 82 % 0.00 in
08:31 85.5 °F 79.0 °F 30.10 in Calm   2.0 mph 81 % 0.00 in
08:36 86.4 °F 79.5 °F 30.10 in Calm   2.0 mph 80 % 0.00 in
08:41 87.3 °F 79.9 °F 30.10 in Calm   2.0 mph 79 % 0.00 in
08:46 87.4 °F 79.0 °F 30.10 in Calm   2.0 mph 76 % 0.00 in
08:51 87.4 °F 79.0 °F 30.10 in Calm   3.0 mph 76 % 0.00 in
08:56 87.6 °F 79.2 °F 30.11 in SSW 4.0 mph 4.0 mph 76 % 0.00 in
09:01 87.4 °F 78.6 °F 30.11 in Calm   4.0 mph 75 % 0.00 in
09:06 87.4 °F 79.0 °F 30.11 in SW 2.0 mph 4.0 mph 76 % 0.00 in
09:11 87.1 °F 77.7 °F 30.11 in Calm   4.0 mph 74 % 0.00 in
09:16 87.4 °F 79.0 °F 30.11 in South 3.0 mph 4.0 mph 76 % 0.00 in
09:21 88.2 °F 79.2 °F 30.11 in SE 2.0 mph 5.0 mph 75 % 0.00 in
09:26 88.0 °F 77.9 °F 30.11 in South 2.0 mph 6.0 mph 72 % 0.00 in
09:31 88.0 °F 78.6 °F 30.11 in SSE 3.0 mph 6.0 mph 74 % 0.00 in
09:36 88.2 °F 78.4 °F 30.11 in Calm   6.0 mph 73 % 0.00 in
09:41 89.1 °F 78.8 °F 30.11 in Calm   4.0 mph 72 % 0.00 in
09:46 90.0 °F 79.7 °F 30.11 in West 1.0 mph 4.0 mph 72 % 0.00 in
09:51 91.0 °F 79.5 °F 30.11 in SE 1.0 mph 4.0 mph 69 % 0.00 in
09:56 90.9 °F 77.5 °F 30.11 in NW 2.0 mph 5.0 mph 65 % 0.00 in
10:01 90.1 °F 78.1 °F 30.11 in SW 1.0 mph 5.0 mph 68 % 0.00 in
10:06 90.3 °F 77.9 °F 30.11 in Calm   5.0 mph 67 % 0.00 in
10:11 90.1 °F 78.1 °F 30.11 in Calm   3.0 mph 68 % 0.00 in
10:17 90.3 °F 77.9 °F 30.11 in Calm   3.0 mph 67 % 0.00 in
10:22 90.5 °F 77.5 °F 30.11 in SSW 4.0 mph 6.0 mph 66 % 0.00 in
10:27 90.3 °F 77.9 °F 30.11 in SSW 2.0 mph 6.0 mph 67 % 0.00 in
10:32 90.9 °F 77.5 °F 30.11 in SSW 3.0 mph 6.0 mph 65 % 0.00 in
10:37 91.2 °F 78.3 °F 30.11 in SSE 1.0 mph 6.0 mph 66 % 0.00 in
10:42 91.2 °F 77.7 °F 30.11 in Calm   4.0 mph 65 % 0.00 in
10:47 90.9 °F 77.9 °F 30.11 in Calm   4.0 mph 66 % 0.00 in
10:52 91.0 °F 76.3 °F 30.11 in South 3.0 mph 4.0 mph 62 % 0.00 in
10:57 91.0 °F 77.5 °F 30.11 in SW 1.0 mph 4.0 mph 65 % 0.00 in
11:02 91.9 °F 77.5 °F 30.10 in Calm   4.0 mph 63 % 0.00 in
11:07 92.5 °F 78.1 °F 30.11 in Calm   5.0 mph 63 % 0.00 in
11:12 92.3 °F 76.8 °F 30.10 in East 2.0 mph 6.0 mph 61 % 0.00 in
11:13 92.1 °F 76.3 °F 30.10 in North 2.0 mph 6.0 mph 60 % 0.00 in
11:18 91.4 °F 75.6 °F 30.10 in WNW 1.0 mph 6.0 mph 60 % 0.00 in
11:23 91.9 °F 77.0 °F 30.10 in NNW 7.0 mph 7.0 mph 62 % 0.00 in
11:28 92.5 °F 76.6 °F 30.10 in SSW 1.0 mph 10.0 mph 60 % 0.00 in
11:33 92.5 °F 77.0 °F 30.10 in Calm   10.0 mph 61 % 0.00 in
11:38 91.9 °F 77.0 °F 30.10 in Calm   10.0 mph 62 % 0.00 in
11:43 91.2 °F 76.3 °F 30.10 in West 1.0 mph 6.0 mph 62 % 0.00 in
11:48 91.2 °F 76.3 °F 30.10 in WNW 1.0 mph 6.0 mph 62 % 0.00 in
11:53 91.6 °F 75.7 °F 30.09 in West 2.0 mph 6.0 mph 60 % 0.00 in
11:58 92.1 °F 75.2 °F 30.09 in Calm   6.0 mph 58 % 0.00 in
12:03 92.1 °F 74.1 °F 30.09 in SE 3.0 mph 5.0 mph 56 % 0.00 in
12:08 92.5 °F 75.0 °F 30.09 in East 2.0 mph 6.0 mph 57 % 0.00 in
12:13 93.4 °F 76.5 °F 30.09 in Calm   6.0 mph 58 % 0.00 in
12:18 94.3 °F 76.1 °F 30.09 in SSW 2.0 mph 6.0 mph 56 % 0.00 in
12:23 94.3 °F 75.6 °F 30.09 in ENE 2.0 mph 6.0 mph 55 % 0.00 in
12:28 93.7 °F 75.2 °F 30.09 in South 3.0 mph 6.0 mph 55 % 0.00 in
12:33 93.2 °F 75.7 °F 30.08 in South 2.0 mph 8.0 mph 57 % 0.00 in
12:38 93.0 °F 74.5 °F 30.08 in Calm   8.0 mph 55 % 0.00 in
12:43 93.6 °F 74.5 °F 30.08 in South 3.0 mph 8.0 mph 54 % 0.00 in
12:48 94.3 °F 73.9 °F 30.08 in Calm   7.0 mph 52 % 0.00 in
12:53 94.5 °F 74.7 °F 30.08 in Calm   7.0 mph 53 % 0.00 in
12:58 94.5 °F 75.2 °F 30.07 in SE 1.0 mph 7.0 mph 54 % 0.00 in
13:03 95.0 °F 75.7 °F 30.07 in NW 1.0 mph 4.0 mph 54 % 0.00 in
13:08 95.4 °F 75.0 °F 30.06 in NNE 2.0 mph 7.0 mph 52 % 0.00 in
13:13 95.7 °F 76.5 °F 30.06 in Calm   7.0 mph 54 % 0.00 in
13:18 96.1 °F 73.8 °F 30.06 in SSW 4.0 mph 7.0 mph 49 % 0.00 in
13:23 96.1 °F 73.2 °F 30.06 in SE 2.0 mph 9.0 mph 48 % 0.00 in
13:28 96.1 °F 73.8 °F 30.06 in Calm   9.0 mph 49 % 0.00 in
13:34 96.6 °F 73.0 °F 30.06 in South 5.0 mph 9.0 mph 47 % 0.00 in
13:39 96.4 °F 72.3 °F 30.06 in SE 2.0 mph 9.0 mph 46 % 0.00 in
13:44 96.6 °F 75.6 °F 30.05 in Calm   9.0 mph 51 % 0.00 in
13:49 97.0 °F 72.7 °F 30.05 in SSE 5.0 mph 9.0 mph 46 % 0.00 in
13:54 96.6 °F 74.3 °F 30.05 in SSW 5.0 mph 11.0 mph 49 % 0.00 in
13:59 96.4 °F 73.6 °F 30.05 in SE 2.0 mph 11.0 mph 48 % 0.00 in
14:04 97.0 °F 74.7 °F 30.05 in ESE 2.0 mph 11.0 mph 49 % 0.00 in
14:09 97.3 °F 74.3 °F 30.05 in ESE 3.0 mph 7.0 mph 48 % 0.00 in
14:14 96.3 °F 73.4 °F 30.05 in East 3.0 mph 7.0 mph 48 % 0.00 in
14:19 95.4 °F 73.2 °F 30.04 in WNW 2.0 mph 5.0 mph 49 % 0.00 in
14:24 94.8 °F 73.2 °F 30.04 in East 1.0 mph 5.0 mph 50 % 0.00 in
14:29 94.6 °F 73.0 °F 30.04 in ESE 2.0 mph 5.0 mph 50 % 0.00 in
14:34 94.5 °F 72.9 °F 30.04 in ESE 3.0 mph 5.0 mph 50 % 0.00 in
14:39 94.3 °F 73.4 °F 30.03 in ESE 2.0 mph 4.0 mph 51 % 0.00 in
14:44 94.6 °F 74.3 °F 30.03 in Calm   5.0 mph 52 % 0.00 in
14:49 95.9 °F 73.6 °F 30.03 in SSE 5.0 mph 5.0 mph 49 % 0.00 in
14:54 97.0 °F 74.7 °F 30.03 in SE 6.0 mph 7.0 mph 49 % 0.00 in
14:55 97.2 °F 74.8 °F 30.03 in ESE 3.0 mph 7.0 mph 49 % 0.00 in
15:00 97.3 °F 75.0 °F 30.02 in SW 1.0 mph 9.0 mph 49 % 0.00 in
15:05 97.7 °F 74.7 °F 30.02 in NW 2.0 mph 9.0 mph 48 % 0.00 in
15:10 98.4 °F 73.4 °F 30.02 in ESE 5.0 mph 8.0 mph 45 % 0.00 in
15:15 98.1 °F 74.3 °F 30.02 in SE 3.0 mph 8.0 mph 47 % 0.00 in
15:20 97.9 °F 72.9 °F 30.01 in South 4.0 mph 8.0 mph 45 % 0.00 in
15:25 97.7 °F 73.4 °F 30.01 in SE 7.0 mph 9.0 mph 46 % 0.00 in
15:30 97.3 °F 73.0 °F 30.01 in SSW 6.0 mph 9.0 mph 46 % 0.00 in
15:35 97.3 °F 73.8 °F 30.01 in South 4.0 mph 10.0 mph 47 % 0.00 in
15:40 97.9 °F 74.3 °F 30.00 in Calm   10.0 mph 47 % 0.00 in
15:45 98.4 °F 72.7 °F 30.00 in South 5.0 mph 10.0 mph 44 % 0.00 in
15:50 98.4 °F 73.4 °F 30.00 in ESE 2.0 mph 10.0 mph 45 % 0.00 in
15:55 98.1 °F 73.8 °F 30.00 in SSE 5.0 mph 11.0 mph 46 % 0.00 in
16:00 97.7 °F 73.4 °F 30.00 in SE 3.0 mph 11.0 mph 46 % 0.00 in
16:05 98.2 °F 73.9 °F 30.00 in ESE 8.0 mph 11.0 mph 46 % 0.00 in
16:10 97.9 °F 74.3 °F 30.00 in ESE 7.0 mph 11.0 mph 47 % 0.00 in
16:15 97.2 °F 73.6 °F 30.00 in West 7.0 mph 11.0 mph 47 % 0.00 in
16:20 95.9 °F 73.0 °F 30.00 in ESE 9.0 mph 11.0 mph 48 % 0.00 in
16:25 94.8 °F 74.5 °F 30.00 in SE 6.0 mph 10.0 mph 52 % 0.00 in
16:30 94.1 °F 73.8 °F 30.00 in SE 7.0 mph 10.0 mph 52 % 0.00 in
16:35 94.1 °F 74.8 °F 30.00 in SSW 7.0 mph 11.0 mph 54 % 0.00 in
16:40 94.1 °F 74.8 °F 30.00 in SSW 7.0 mph 12.0 mph 54 % 0.00 in
16:45 93.6 °F 75.0 °F 30.00 in SSE 5.0 mph 12.0 mph 55 % 0.00 in
16:50 92.5 °F 75.6 °F 30.00 in South 5.0 mph 13.0 mph 58 % 0.00 in
16:55 91.9 °F 75.0 °F 30.00 in SSE 6.0 mph 13.0 mph 58 % 0.00 in
17:00 91.6 °F 75.2 °F 30.00 in SSW 2.0 mph 13.0 mph 59 % 0.00 in
17:02 91.6 °F 74.7 °F 30.00 in SE 4.0 mph 13.0 mph 58 % 0.00 in
17:07 91.4 °F 75.0 °F 29.99 in South 2.0 mph 9.0 mph 59 % 0.00 in
17:12 91.4 °F 74.5 °F 29.99 in SSE 9.0 mph 9.0 mph 58 % 0.00 in
17:17 91.2 °F 73.4 °F 30.01 in South 8.0 mph 12.0 mph 56 % 0.00 in
17:22 90.9 °F 73.6 °F 30.00 in SSE 4.0 mph 12.0 mph 57 % 0.00 in
17:27 90.3 °F 73.6 °F 30.00 in South 5.0 mph 12.0 mph 58 % 0.00 in
17:32 90.0 °F 73.2 °F 30.00 in SSE 2.0 mph 11.0 mph 58 % 0.00 in
17:37 90.0 °F 74.1 °F 30.00 in SE 8.0 mph 11.0 mph 60 % 0.00 in
17:42 89.8 °F 74.1 °F 30.01 in SSE 10.0 mph 10.0 mph 60 % 0.00 in
17:47 88.5 °F 73.4 °F 30.00 in South 7.0 mph 14.0 mph 61 % 0.00 in
17:52 88.0 °F 73.8 °F 29.99 in ESE 7.0 mph 14.0 mph 63 % 0.00 in
17:57 87.3 °F 73.0 °F 30.00 in South 3.0 mph 14.0 mph 63 % 0.00 in
18:02 86.9 °F 72.9 °F 30.01 in SSW 3.0 mph 8.0 mph 63 % 0.00 in
18:07 86.5 °F 73.4 °F 30.02 in ESE 2.0 mph 8.0 mph 65 % 0.00 in
18:12 86.4 °F 74.1 °F 30.01 in South 2.0 mph 8.0 mph 67 % 0.00 in
18:17 86.2 °F 74.3 °F 30.01 in Calm   6.0 mph 68 % 0.00 in
18:22 86.0 °F 74.1 °F 30.01 in Calm   6.0 mph 68 % 0.00 in
18:27 85.8 °F 74.5 °F 30.02 in Calm   4.0 mph 69 % 0.00 in
18:32 85.6 °F 74.7 °F 30.01 in Calm   4.0 mph 70 % 0.00 in
18:37 85.6 °F 74.7 °F 30.01 in South 1.0 mph 4.0 mph 70 % 0.00 in
18:42 85.5 °F 74.5 °F 30.01 in Calm   2.0 mph 70 % 0.00 in
18:47 85.6 °F 74.7 °F 30.01 in Calm   3.0 mph 70 % 0.00 in
18:52 85.6 °F 74.7 °F 30.00 in SSE 3.0 mph 3.0 mph 70 % 0.00 in
18:58 85.8 °F 74.8 °F 30.01 in South 2.0 mph 3.0 mph 70 % 0.00 in
19:03 86.0 °F 75.0 °F 30.01 in South 3.0 mph 4.0 mph 70 % 0.00 in
19:08 86.0 °F 75.0 °F 30.00 in SSW 2.0 mph 5.0 mph 70 % 0.00 in
19:13 86.0 °F 75.0 °F 30.01 in SSW 4.0 mph 5.0 mph 70 % 0.00 in
19:18 86.2 °F 75.2 °F 30.01 in SSE 1.0 mph 5.0 mph 70 % 0.00 in
19:23 86.2 °F 75.2 °F 30.01 in SSW 3.0 mph 5.0 mph 70 % 0.00 in
19:28 86.0 °F 75.6 °F 30.01 in SSW 2.0 mph 5.0 mph 71 % 0.00 in
19:33 85.8 °F 75.4 °F 30.01 in SW 3.0 mph 5.0 mph 71 % 0.00 in
19:38 85.6 °F 75.6 °F 30.01 in Calm   5.0 mph 72 % 0.00 in
19:43 85.6 °F 75.6 °F 30.01 in SE 1.0 mph 5.0 mph 72 % 0.00 in
19:48 85.6 °F 75.6 °F 30.01 in SE 2.0 mph 4.0 mph 72 % 0.00 in
19:53 85.8 °F 75.7 °F 30.02 in Calm   4.0 mph 72 % 0.00 in
19:58 85.8 °F 75.7 °F 30.01 in SE 2.0 mph 4.0 mph 72 % 0.00 in
20:03 86.0 °F 75.9 °F 30.02 in South 3.0 mph 4.0 mph 72 % 0.00 in
20:08 85.8 °F 75.7 °F 30.02 in SSW 3.0 mph 4.0 mph 72 % 0.00 in
20:13 86.0 °F 76.3 °F 30.02 in SSE 2.0 mph 4.0 mph 73 % 0.00 in
20:18 86.2 °F 76.5 °F 30.02 in South 4.0 mph 4.0 mph 73 % 0.00 in
20:23 86.4 °F 76.6 °F 30.02 in South 4.0 mph 5.0 mph 73 % 0.00 in
20:28 86.4 °F 76.6 °F 30.02 in SSW 2.0 mph 5.0 mph 73 % 0.00 in
20:33 86.4 °F 76.6 °F 30.01 in SSE 2.0 mph 5.0 mph 73 % 0.00 in
20:38 86.4 °F 77.0 °F 30.01 in SSW 1.0 mph 6.0 mph 74 % 0.00 in
20:43 86.2 °F 77.4 °F 30.01 in South 2.0 mph 6.0 mph 75 % 0.00 in
20:48 86.0 °F 77.2 °F 30.01 in SSE 2.0 mph 6.0 mph 75 % 0.00 in
20:53 85.8 °F 77.4 °F 30.01 in SSE 2.0 mph 5.0 mph 76 % 0.00 in
20:58 85.8 °F 77.4 °F 30.01 in SSE 7.0 mph 7.0 mph 76 % 0.00 in
21:03 85.6 °F 77.2 °F 30.01 in SW 7.0 mph 7.0 mph 76 % 0.00 in
21:08 85.6 °F 77.2 °F 30.01 in South 6.0 mph 9.0 mph 76 % 0.00 in
21:13 85.5 °F 77.4 °F 30.01 in SSE 5.0 mph 9.0 mph 77 % 0.00 in
21:19 85.3 °F 77.2 °F 30.01 in South 2.0 mph 9.0 mph 77 % 0.00 in
21:24 85.3 °F 77.2 °F 30.01 in SW 2.0 mph 8.0 mph 77 % 0.00 in
21:29 85.1 °F 77.0 °F 30.01 in SW 2.0 mph 7.0 mph 77 % 0.00 in
21:34 84.9 °F 77.4 °F 30.01 in SSW 3.0 mph 9.0 mph 78 % 0.00 in
21:39 84.9 °F 77.4 °F 30.01 in SW 5.0 mph 9.0 mph 78 % 0.00 in
21:44 84.9 °F 77.4 °F 30.01 in SE 4.0 mph 9.0 mph 78 % 0.00 in
21:49 84.7 °F 77.2 °F 30.01 in South 3.0 mph 7.0 mph 78 % 0.00 in
21:54 84.7 °F 77.5 °F 30.01 in South 2.0 mph 8.0 mph 79 % 0.00 in
21:59 84.6 °F 77.4 °F 30.02 in South 3.0 mph 8.0 mph 79 % 0.00 in
22:04 84.4 °F 77.2 °F 30.02 in South 4.0 mph 8.0 mph 79 % 0.00 in
22:09 84.4 °F 77.2 °F 30.02 in South 2.0 mph 5.0 mph 79 % 0.00 in
22:14 84.2 °F 77.4 °F 30.03 in SSW 4.0 mph 5.0 mph 80 % 0.00 in
22:19 84.0 °F 77.2 °F 30.03 in SSE 1.0 mph 5.0 mph 80 % 0.00 in
22:24 84.0 °F 77.2 °F 30.03 in SSW 1.0 mph 5.0 mph 80 % 0.00 in
22:29 83.8 °F 77.0 °F 30.03 in South 1.0 mph 4.0 mph 80 % 0.00 in
22:34 83.8 °F 77.4 °F 30.03 in South 1.0 mph 4.0 mph 81 % 0.00 in
22:39 83.7 °F 77.2 °F 30.04 in SSW 1.0 mph 5.0 mph 81 % 0.00 in
22:44 83.7 °F 77.2 °F 30.04 in Calm   5.0 mph 81 % 0.00 in
22:49 83.5 °F 77.0 °F 30.04 in Calm   5.0 mph 81 % 0.00 in
22:54 83.5 °F 77.0 °F 30.04 in South 1.0 mph 2.0 mph 81 % 0.00 in
22:59 83.1 °F 77.0 °F 30.04 in SSW 3.0 mph 3.0 mph 82 % 0.00 in
23:04 83.1 °F 77.0 °F 30.04 in Calm   3.0 mph 82 % 0.00 in
23:09 83.1 °F 77.0 °F 30.04 in South 2.0 mph 3.0 mph 82 % 0.00 in
23:14 82.9 °F 76.8 °F 30.04 in SSW 2.0 mph 3.0 mph 82 % 0.00 in
23:19 82.9 °F 76.8 °F 30.04 in SSW 2.0 mph 4.0 mph 82 % 0.00 in
23:24 82.9 °F 76.8 °F 30.04 in South 4.0 mph 4.0 mph 82 % 0.00 in
23:29 82.8 °F 76.6 °F 30.04 in South 3.0 mph 5.0 mph 82 % 0.00 in
23:34 82.8 °F 76.6 °F 30.04 in South 6.0 mph 6.0 mph 82 % 0.00 in
23:39 82.8 °F 76.6 °F 30.04 in SSE 3.0 mph 7.0 mph 82 % 0.00 in
23:45 82.6 °F 76.5 °F 30.04 in SSE 4.0 mph 7.0 mph 82 % 0.00 in
23:49 82.6 °F 76.5 °F 30.04 in SSW 2.0 mph 7.0 mph 82 % 0.00 in
23:54 82.6 °F 76.5 °F 30.04 in SE 2.0 mph 7.0 mph 82 % 0.00 in
23:59 82.4 °F 76.3 °F 30.04 in South 2.0 mph 7.0 mph 82 % 0.00 in
Spring, Texas: Villages of Bridgestone
Compliments of Weather Underground - 2.75 mb

Script developed by  Jim McMurry - jmcmurry@mwt.net Adapted for the template by  Wim van der Kuil - Leuven-Template.eu

You find our weather info also at:

UK Metoffice

WeatherCloud

Weather Underground

Mid-South Weather Network

AWEKAS

Citizen Weather Observer Program (CWOP)

HAMweather, WeatherForYou, PWS Weather

Equipment we use:

Weather-station
Davis Vantage Vue

Weather-program
Meteohub

Weather-server
Debian 7.9 x86 (Guest)

Provider
DreamHost

Davis Vantage Vue

Meteohub

Debian 7.9 x86 (Guest)

DreamHost